Погода в Дарбанде

Таджикистан     38°53′59″N   70°06′58″E
темп.,
°C
ветер,
м/с
пор.,
м/с
влажн.,
%
обл.,
%
осадки,
мм/ч
давл.,
гПа
погр.,
м
13 мая, чт
чт1323:00+6ссз22660 2.3 101516
02:00+5ссз11711 0.3 101510
05:00+4ссв11682 0.4 101611
08:00+8вюв11555 0.0 1016373
11:00+11ю325816 0.4 10141088
14:00+12ю335945 1.6 10131205
17:00+11ю336599 5.6 1013398
20:00+7ю3382100 4.8 101696
14 мая, пт
пт1423:00+6юв1192100 6.2 101869
02:00+5вюв1193100 0.3 101892
05:00+4св2290100 0.4 101734
08:00+7в22768 0.3 1017344
11:00+11ююв22575 0.7 10151067
14:00+13ю324738 0.9 10131701
17:00+13зюз224994 2.5 10131323
20:00+8зсз226674 1.1 101515
15 мая, сб
сб1523:00+7с116550 1.4 101510
02:00+6с116734 0.3 101510
05:00+5с126713 0.4 101511
08:00+10вюв11592 0.0 1016386
11:00+13ююв22521 0.1 10141180
14:00+15ю324315 0.3 10121717
17:00+15ююз224324 0.5 10111568
20:00+9ссз326536 0.3 101426
16 мая, вс
вс1623:00+7ссв2275100 1.8 101647
02:00+6ссв11732 0.0 101611
05:00+5с12701 0.0 101611
08:00+10вюв21560 0.0 1016359
11:00+14ююв22381 0.0 10151262
14:00+15ю23321 0.0 10131886
17:00+15ююз223212 0.0 10121574
20:00+10зсз214529 0.0 101410
17 мая, пн
пн1723:00+9сз224454 0.0 101612
02:00+7ссз11480 0.0 101610
05:00+7ссз22530 0.0 101711
08:00+12в21440 0.0 1017428
11:00+15юв223113 0.0 10151406
14:00+17ю232668 0.0 10141971
17:00+17ююз122730 0.0 10121583
20:00+11сз22325 0.0 101412